GW1942 Weather Reports


time (UTC)temp
C
wind
direction
speed
KPH
gust
KPH
rain 1hr
cm
rain 24hr
cm
rain mn
cm
humidity
%
barometer
mb
20260509073025 11 112 0.0 12.9 0.00 0.00 0.00 58 1014.3
20260509071513 12 122 3.2 9.7 0.00 0.00 0.00 57 1013.9
20260509070011 12 260 0.0 8.0 0.00 0.00 0.00 58 1013.9
20260509064510 12 99 1.6 11.3 0.00 0.00 0.00 59 1013.7
20260509063013 12 97 6.4 12.9 0.00 0.00 0.00 57 1013.7
20260509061605 12 93 3.2 9.7 0.00 0.00 0.00 57 1013.8
20260509060004 12 92 1.6 8.0 0.00 0.00 0.00 59 1013.9
20260509054502 12 124 3.2 8.0 0.00 0.00 0.00 60 1013.8
20260509053002 12 80 4.8 11.3 0.00 0.00 0.00 59 1013.7
20260509051501 12 106 1.6 6.4 0.00 0.00 0.00 58 1013.8
20260509050101 12 114 0.0 3.2 0.00 0.00 0.00 58 1013.7
20260509044559 13 86 0.0 8.0 0.00 0.00 0.00 56 1013.4
20260509043058 13 60 4.8 11.3 0.00 0.00 0.00 55 1013.4
20260509041558 13 86 3.2 9.7 0.00 0.00 0.00 54 1013.3
20260509040125 13 122 3.2 9.7 0.00 0.00 0.00 54 1013.0
20260509034600 13 75 4.8 11.3 0.00 0.00 0.00 52 1013.0
20260509033055 14 66 6.4 14.5 0.00 0.00 0.00 50 1012.6
20260509031558 14 98 3.2 8.0 0.00 0.00 0.00 50 1012.3
20260509030058 15 93 3.2 9.7 0.00 0.00 0.00 49 1012.2
20260509024555 16 65 3.2 6.4 0.00 0.00 0.00 44 1012.0
20260509023052 16 60 1.6 4.8 0.00 0.00 0.00 48 1011.9
20260509021552 17 87 0.0 4.8 0.00 0.00 0.00 44 1011.7
20260509020052 17 13 0.0 3.2 0.00 0.00 0.00 42 1011.5
20260509014551 17 209 0.0 0.0 0.00 0.00 0.00 47 1011.3
20260509013052 18 209 0.0 3.2 0.00 0.00 0.00 42 1011.4
20260509011558 18 313 0.0 3.2 0.00 0.00 0.00 32 1011.2
20260509010050 18 353 0.0 4.8 0.00 0.00 0.00 32 1011.3
20260509004605 18 285 1.6 6.4 0.00 0.00 0.00 33 1011.2
20260509003049 19 266 0.0 6.4 0.00 0.00 0.00 31 1011.2
20260509001548 19 162 3.2 9.7 0.00 0.00 0.00 31 1011.1
20260509000048 19 215 6.4 12.9 0.00 0.00 0.00 31 1010.9
20260508234545 19 202 1.6 9.7 0.00 0.00 0.00 34 1011.0
20260508233045 20 127 3.2 8.0 0.00 0.00 0.00 32 1011.1
20260508231545 19 195 1.6 9.7 0.00 0.00 0.00 34 1011.0
20260508230044 19 136 4.8 9.7 0.00 0.00 0.00 37 1010.8
20260508224545 20 155 3.2 11.3 0.00 0.00 0.00 34 1010.8
20260508223049 20 209 0.0 16.1 0.00 0.00 0.00 35 1010.6
20260508221542 20 146 4.8 14.5 0.00 0.00 0.00 33 1010.6
20260508220041 21 186 3.2 14.5 0.00 0.00 0.00 34 1010.6
20260508214548 21 199 4.8 17.7 0.00 0.00 0.00 33 1010.6
20260508213040 22 209 4.8 14.5 0.00 0.00 0.00 32 1010.4
20260508211539 22 217 3.2 19.3 0.00 0.00 0.00 32 1010.5
20260508210039 23 248 4.8 12.9 0.00 0.00 0.00 29 1010.4
20260508204542 23 309 6.4 19.3 0.00 0.00 0.00 28 1010.4
20260508203035 23 316 6.4 17.7 0.00 0.00 0.00 29 1010.5
20260508201535 23 264 6.4 12.9 0.00 0.00 0.00 27 1010.5
20260508200030 23 44 1.6 8.0 0.00 0.00 0.00 32 1010.5
20260508194528 22 171 3.2 9.7 0.00 0.00 0.00 34 1010.5
20260508193028 23 295 0.0 3.2 0.00 0.00 0.00 39 1010.6
20260508191528 22 289 1.6 11.3 0.00 0.00 0.00 36 1010.8
20260508190027 22 96 1.6 6.4 0.00 0.00 0.00 37 1010.9
20260508184520 22 15 1.6 4.8 0.00 0.00 0.00 38 1011.1
20260508183017 21 40 3.2 8.0 0.00 0.00 0.00 40 1011.2
20260508181517 21 101 0.0 4.8 0.00 0.00 0.00 41 1011.4
20260508180017 20 56 1.6 3.2 0.00 0.00 0.00 45 1011.5
20260508174511 19 124 1.6 4.8 0.00 0.00 0.00 51 1011.9
20260508173008 18 275 0.0 4.8 0.00 0.00 0.00 52 1012.1
20260508171501 17 257 0.0 4.8 0.00 0.00 0.00 54 1012.3
20260508170100 17 280 0.0 4.8 0.00 0.00 0.00 58 1012.3
20260508164555 16 280 0.0 3.2 0.00 0.00 0.00 61 1012.6
20260508163051 15 41 0.0 6.4 0.00 0.00 0.00 63 1012.8
20260508161549 14 70 0.0 4.8 0.00 0.00 0.00 65 1012.9
20260508160105 14 86 0.0 1.6 0.00 0.00 0.00 66 1013.1
20260508154543 12 77 0.0 3.2 0.00 0.00 0.00 72 1013.2
20260508153045 12 68 0.0 1.6 0.00 0.00 0.00 73 1013.3
20260508151538 11 58 0.0 3.2 0.00 0.00 0.00 75 1013.5
20260508150037 10 82 0.0 1.6 0.00 0.00 0.00 80 1013.6
20260508144535 9 123 0.0 1.6 0.00 0.00 0.00 82 1013.7
20260508143042 8 253 0.0 1.6 0.00 0.00 0.00 86 1013.6
20260508141547 7 210 0.0 0.0 0.00 0.00 0.00 88 1013.7
20260508140033 6 286 0.0 1.6 0.00 0.00 0.00 90 1013.6
20260508134534 5 157 0.0 0.0 0.00 0.00 0.00 92 1013.6
20260508133030 5 211 0.0 1.6 0.00 0.00 0.00 92 1013.5
20260508131529 4 272 0.0 1.6 0.00 0.00 0.00 94 1013.5
20260508130028 3 203 0.0 1.6 0.00 0.00 0.00 93 1013.3
20260508124526 3 238 0.0 0.0 0.00 0.00 0.00 93 1013.1
20260508123025 3 238 0.0 1.6 0.00 0.00 0.00 92 1013.1
20260508121548 3 75 0.0 1.6 0.00 0.00 0.00 94 1012.9
20260508120022 3 139 0.0 1.6 0.00 0.00 0.00 92 1012.9
20260508114519 4 108 0.0 0.0 0.00 0.00 0.00 94 1013.0
20260508113018 4 121 0.0 1.6 0.00 0.00 0.00 94 1013.1
20260508111516 5 103 0.0 1.6 0.00 0.00 0.00 89 1012.8
20260508110015 4 95 0.0 1.6 0.00 0.00 0.00 91 1012.7
20260508104613 5 206 0.0 3.2 0.00 0.00 0.00 93 1012.6
20260508103015 4 113 0.0 1.6 0.00 0.00 0.00 91 1012.6
20260508101510 5 158 0.0 0.0 0.00 0.00 0.00 90 1012.6
20260508100007 5 158 0.0 0.0 0.00 0.00 0.00 92 1012.4
20260508094505 5 252 0.0 1.6 0.00 0.00 0.00 92 1012.3
20260508093001 5 190 0.0 1.6 0.00 0.00 0.00 86 1012.3
20260508091500 5 193 0.0 0.0 0.00 0.00 0.00 90 1012.2
20260508090059 6 194 0.0 0.0 0.00 0.00 0.00 89 1012.2
20260508084557 6 245 0.0 1.6 0.00 0.00 0.00 88 1012.0
20260508083137 6 162 0.0 3.2 0.00 0.00 0.00 87 1012.0
20260508081556 6 151 0.0 1.6 0.00 0.00 0.00 87 1011.8
20260508080059 7 204 0.0 3.2 0.00 0.00 0.00 84 1011.8
20260508074547 8 299 1.6 4.8 0.00 0.00 0.00 83 1011.9